Regional Weather Roundup
Issued by NWS

Home | Current Version | Previous Version | Graphics & Text | Print | Product List | Glossary On
Versions: 1 2 3 4 5 6 7 8 9 10 11 12 13 14 15 16 17 18 19 20 21 22 23 24 25 26 27 28 29 30 31 32 33 34 35 36 37 38 39 40 41 42 43 44 45 46 47 48 49 50
000
ASUS43 KFSD 272210
RWRSD

WEATHER ROUNDUP FOR SOUTH DAKOTA
NATIONAL WEATHER SERVICE SIOUX FALLS SD
500 PM CDT WED JUL 27 2016

NOTE: "FAIR" INDICATES FEW OR NO CLOUDS BELOW 12,000 FEET WITH NO
SIGNIFICANT WEATHER AND/OR OBSTRUCTIONS TO VISIBILITY.


SDZ001>005-009-010-012>017-272300-
NORTHWEST AND NORTH CENTRAL SOUTH DAKOTA

CITY           SKY/WX    TMP DP  RH WIND       PRES   REMARKS
BUFFALO          N/A     74  58  57 SE14      30.06F
FAITH            N/A     68  60  75 E3        30.08F
MOBRIDGE       PTSUNNY   81  59  47 VRB5      30.06R
$$

SDZ012>016-024>037-041>051-057-063-072>074-272300-
SOUTHWEST AND SOUTH CENTRAL SOUTH DAKOTA

CITY           SKY/WX    TMP DP  RH WIND       PRES   REMARKS
RAPID CTY ARPT MOSUNNY   80  61  52 NE16      30.13F
PIERRE         MOSUNNY   87  58  37 NE10G21   30.02R
CUSTER         CLOUDY    70  59  68 NE9       30.25F
PHILIP         TSTM      68  65  90 NE15G22   30.09R FOG
PINE RIDGE     CLOUDY    82  66  58 NE12G17   30.11F
WINNER         FAIR      79  65  62 N6        30.05R
$$

SDZ004>011-016>023-039-040-272300-
NORTHEAST SOUTH DAKOTA

CITY           SKY/WX    TMP DP  RH WIND       PRES   REMARKS
ABERDEEN       SUNNY     80  59  48 NE12      30.03F
WATERTOWN      MOSUNNY   79  61  53 NE15G23   30.03S
BROOKINGS      MOSUNNY   78  65  63 NE15      30.01F
SISSETON         N/A     79  58  48 N10       30.02S
$$

SDZ017-020-022-023-036>040-048>070-272300-
SOUTHEAST SOUTH DAKOTA

CITY           SKY/WX    TMP DP  RH WIND       PRES   REMARKS
SIOUX FALLS    MOSUNNY   82  66  58 N9        30.00R
HURON          MOSUNNY   83  63  50 N14G21    29.99F
CHAMBERLAIN    PTSUNNY   84  64  51 NE9       30.03R
MITCHELL       MOSUNNY   83  63  50 NE13      29.99S
YANKTON        SUNNY     88  61  40 CALM      29.94F
$$

ABBREVIATIONS USED IN REMARKS
   TC - TEMPERATURE IN CELSIUS
  WCI - WIND CHILL INDEX
   HX - HEAT INDEX
  VSB - VISIBILITY




USA.gov is the U.S. government's official web portal to all federal, state and local government web resources and services.